{"data":{"norad_id":66439,"epoch":"2026-09-20T07:56:18.049344Z","epoch_age_seconds":107706,"freshness":"FRESH","line1":"1 66439U 25259T   26263.33076446  .00007846  00000+0  29425-3 0  9992","line2":"2 66439  42.9992 254.7249 0001126 275.0108  85.0615 15.27589161 49262","mean_motion":15.27589161,"eccentricity":0.0001126,"inclination_deg":42.9992,"raan_deg":254.7249,"arg_perigee_deg":275.0108,"mean_anomaly_deg":85.0615,"bstar":0.00029425,"rev_number":4926,"period_min":94.26618339301,"perigee_km":482.24909838143,"apogee_km":483.79423131275,"semimajor_km":6861.1586648471,"source":"CELESTRAK","updated_at":"2026-09-21T09:00:35.909649Z"}}